Location: San Vito
(41.8833°N, 12.9833°E)
Time: 02:30:23
(UTC+00:00)

Cosmos 1500 Rocket - Pass Details

Date: 17 November 2019
Orbit: 602 x 632 km, 82.5° (Epoch: 15 December)

Event Time Altitude Azimuth Distance (km) Brightness Sun altitude
Rises 04:53:05 0° 181° (S) 2,911 7.2 -12.5°
Reaches altitude 10° 04:55:19 10° 180° (S) 2,007 6.4 -12.1°
Maximum altitude 04:59:45 73° 96° (E) 661 3.9 -11.3°
Drops below altitude 10° 05:04:12 10° 12° (NNE) 2,013 6.1 -10.5°
Sets 05:06:27 0° 10° (N) 2,921 7.0 -10.1°
